Time,TemperatureF,DewpointF,PressureIn,WindDirection,WindDirectionDegrees,WindSpeedMPH,WindSpeedGustMPH,Humidity,HourlyPrecipIn,Conditions,Clouds,dailyrainin,SoftwareType,DateUTC
2013-07-15 00:02:00,65.1,37.0,29.91,SW,229,0.0,-999.0,35,-99.99,,,0.00,weatherlink.com 1.10,2013-07-15 07:02:00,
2013-07-15 00:17:00,64.9,36.0,29.92,SW,229,0.0,-999.0,35,-99.99,,,0.00,weatherlink.com 1.10,2013-07-15 07:17:00,
2013-07-15 00:32:00,64.9,36.0,29.92,SW,229,0.0,-999.0,35,-99.99,,,0.00,weatherlink.com 1.10,2013-07-15 07:32:00,
2013-07-15 00:47:00,64.5,37.0,29.92,SW,229,0.0,-999.0,37,-99.99,,,0.00,weatherlink.com 1.10,2013-07-15 07:47:00,
2013-07-15 01:02:00,64.0,36.0,29.91,SW,229,0.0,-999.0,36,-99.99,,,0.00,weatherlink.com 1.10,2013-07-15 08:02:00,
2013-07-15 01:17:00,64.1,36.0,29.92,SW,229,0.0,-999.0,36,-99.99,,,0.00,weatherlink.com 1.10,2013-07-15 08:17:00,
2013-07-15 01:32:00,64.4,37.0,29.92,SW,229,0.0,-999.0,36,-99.99,,,0.00,weatherlink.com 1.10,2013-07-15 08:32:00,
2013-07-15 01:47:00,64.2,37.0,29.91,SW,229,0.0,-999.0,36,-99.99,,,0.00,weatherlink.com 1.10,2013-07-15 08:47:00,
2013-07-15 02:02:00,64.0,36.0,29.91,SW,229,0.0,-999.0,35,-99.99,,,0.00,weatherlink.com 1.10,2013-07-15 09:02:00,
2013-07-15 02:17:00,64.0,36.0,29.91,SW,229,0.0,-999.0,36,-99.99,,,0.00,weatherlink.com 1.10,2013-07-15 09:17:00,
2013-07-15 02:32:00,64.0,36.0,29.91,SW,229,0.0,-999.0,36,-99.99,,,0.00,weatherlink.com 1.10,2013-07-15 09:32:00,
2013-07-15 02:47:00,63.7,36.0,29.90,SW,229,0.0,-999.0,36,-99.99,,,0.00,weatherlink.com 1.10,2013-07-15 09:47:00,
2013-07-15 03:02:00,63.4,35.0,29.90,SW,229,0.0,-999.0,35,-99.99,,,0.00,weatherlink.com 1.10,2013-07-15 10:02:00,
2013-07-15 03:17:00,62.8,37.0,29.90,SW,229,0.0,-999.0,38,-99.99,,,0.00,weatherlink.com 1.10,2013-07-15 10:17:00,
2013-07-15 03:32:00,61.1,36.0,29.90,SW,229,0.0,-999.0,40,-99.99,,,0.00,weatherlink.com 1.10,2013-07-15 10:32:00,
2013-07-15 03:47:00,60.1,33.0,29.90,SW,229,0.0,-999.0,36,-99.99,,,0.00,weatherlink.com 1.10,2013-07-15 10:47:00,
2013-07-15 04:02:00,61.4,40.0,29.89,SW,229,0.0,-999.0,45,-99.99,,,0.00,weatherlink.com 1.10,2013-07-15 11:02:00,
2013-07-15 04:17:00,59.5,34.0,29.89,SW,229,0.0,-999.0,38,-99.99,,,0.00,weatherlink.com 1.10,2013-07-15 11:17:00,
2013-07-15 04:32:00,59.6,32.0,29.89,SW,229,0.0,-999.0,35,-99.99,,,0.00,weatherlink.com 1.10,2013-07-15 11:32:00,
2013-07-15 04:47:00,60.8,33.0,29.89,SW,229,0.0,-999.0,35,-99.99,,,0.00,weatherlink.com 1.10,2013-07-15 11:47:00,
2013-07-15 05:02:00,61.4,33.0,29.89,SW,229,0.0,-999.0,34,-99.99,,,0.00,weatherlink.com 1.10,2013-07-15 12:02:00,
2013-07-15 05:17:00,59.4,43.0,29.89,SW,229,0.0,-999.0,55,-99.99,,,0.00,weatherlink.com 1.10,2013-07-15 12:17:00,
2013-07-15 05:32:00,54.8,43.0,29.89,SW,229,0.0,-999.0,64,-99.99,,,0.00,weatherlink.com 1.10,2013-07-15 12:32:00,
2013-07-15 05:47:00,51.5,41.0,29.90,SW,229,0.0,-999.0,67,-99.99,,,0.00,weatherlink.com 1.10,2013-07-15 12:47:00,
2013-07-15 06:02:00,49.8,41.0,29.89,SW,229,0.0,-999.0,71,-99.99,,,0.00,weatherlink.com 1.10,2013-07-15 13:02:00,
2013-07-15 06:17:00,48.6,41.0,29.89,SW,229,0.0,-999.0,74,-99.99,,,0.00,weatherlink.com 1.10,2013-07-15 13:17:00,
2013-07-15 06:32:00,47.4,40.0,29.90,SW,229,0.0,-999.0,76,-99.99,,,0.00,weatherlink.com 1.10,2013-07-15 13:32:00,
2013-07-15 06:47:00,47.3,40.0,29.90,SW,229,0.0,-999.0,77,-99.99,,,0.00,weatherlink.com 1.10,2013-07-15 13:47:00,
2013-07-15 07:02:00,47.2,40.0,29.90,SW,229,0.0,-999.0,77,-99.99,,,0.00,weatherlink.com 1.10,2013-07-15 14:02:00,
2013-07-15 07:17:00,47.7,41.0,29.91,SW,229,0.0,-999.0,77,-99.99,,,0.00,weatherlink.com 1.10,2013-07-15 14:17:00,
2013-07-15 07:32:00,48.7,42.0,29.91,SW,229,0.0,-999.0,77,-99.99,,,0.00,weatherlink.com 1.10,2013-07-15 14:32:00,
2013-07-15 07:47:00,49.5,43.0,29.92,SW,229,0.0,-999.0,77,-99.99,,,0.00,weatherlink.com 1.10,2013-07-15 14:47:00,
2013-07-15 08:02:00,49.2,42.0,29.92,SW,229,0.0,-999.0,77,-99.99,,,0.00,weatherlink.com 1.10,2013-07-15 15:02:00,
2013-07-15 08:17:00,49.2,43.0,29.92,SW,226,0.0,-999.0,78,-99.99,,,0.00,weatherlink.com 1.10,2013-07-15 15:17:00,
2013-07-15 08:32:00,50.2,44.0,29.92,SW,226,0.0,-999.0,78,-99.99,,,0.00,weatherlink.com 1.10,2013-07-15 15:32:00,
2013-07-15 08:47:00,52.3,45.0,29.92,SW,226,0.0,-999.0,77,-99.99,,,0.00,weatherlink.com 1.10,2013-07-15 15:47:00,
2013-07-15 09:16:00,53.7,47.0,29.93,SW,226,0.0,-999.0,77,-99.99,,,0.00,weatherlink.com 1.10,2013-07-15 16:16:00,
2013-07-15 09:31:00,53.7,47.0,29.93,SW,226,0.0,-999.0,77,-99.99,,,0.00,weatherlink.com 1.10,2013-07-15 16:31:00,
2013-07-15 09:46:00,53.7,46.0,29.92,SW,226,0.0,-999.0,76,-99.99,,,0.00,weatherlink.com 1.10,2013-07-15 16:46:00,
2013-07-15 10:01:00,54.2,47.0,29.92,SW,226,0.0,-999.0,76,-99.99,,,0.00,weatherlink.com 1.10,2013-07-15 17:01:00,
2013-07-15 10:16:00,54.6,47.0,29.93,SW,226,0.0,-999.0,76,-99.99,,,0.00,weatherlink.com 1.10,2013-07-15 17:16:00,
2013-07-15 10:31:00,53.9,47.0,29.93,SW,226,0.0,-999.0,76,-99.99,,,0.00,weatherlink.com 1.10,2013-07-15 17:31:00,
2013-07-15 10:46:00,56.3,49.0,29.93,SW,226,0.0,-999.0,76,-99.99,,,0.00,weatherlink.com 1.10,2013-07-15 17:46:00,
2013-07-15 11:16:00,55.7,48.0,29.93,SW,228,0.0,-999.0,76,-99.99,,,0.00,weatherlink.com 1.10,2013-07-15 18:16:00,
2013-07-15 11:31:00,55.1,48.0,29.93,SW,232,0.0,-999.0,76,-99.99,,,0.00,weatherlink.com 1.10,2013-07-15 18:31:00,
2013-07-15 11:46:00,55.1,48.0,29.93,SW,234,0.0,-999.0,76,-99.99,,,0.00,weatherlink.com 1.10,2013-07-15 18:46:00,
2013-07-15 12:01:00,55.4,48.0,29.94,WSW,242,0.0,-999.0,76,-99.99,,,0.00,weatherlink.com 1.10,2013-07-15 19:01:00,
2013-07-15 12:16:00,56.3,49.0,29.93,WSW,242,0.0,-999.0,76,-99.99,,,0.00,weatherlink.com 1.10,2013-07-15 19:16:00,
2013-07-15 12:31:00,56.6,49.0,29.94,WSW,244,0.0,-999.0,76,-99.99,,,0.00,weatherlink.com 1.10,2013-07-15 19:31:00,
2013-07-15 13:01:00,57.3,50.0,29.94,WSW,248,0.0,-999.0,76,-99.99,,,0.00,weatherlink.com 1.10,2013-07-15 20:01:00,
2013-07-15 13:16:00,57.5,50.0,29.94,WSW,248,0.0,-999.0,76,-99.99,,,0.00,weatherlink.com 1.10,2013-07-15 20:16:00,
2013-07-15 13:31:00,57.6,50.0,29.94,WSW,251,0.0,-999.0,75,-99.99,,,0.00,weatherlink.com 1.10,2013-07-15 20:31:00,
2013-07-15 14:01:00,58.5,50.0,29.94,WSW,250,0.0,-999.0,73,-99.99,,,0.00,weatherlink.com 1.10,2013-07-15 21:01:00,
2013-07-15 14:16:00,60.2,52.0,29.95,WSW,249,0.0,-999.0,73,-99.99,,,0.00,weatherlink.com 1.10,2013-07-15 21:16:00,
2013-07-15 14:31:00,58.8,50.0,29.95,WSW,252,3.0,-999.0,73,-99.99,,,0.00,weatherlink.com 1.10,2013-07-15 21:31:00,
2013-07-15 14:46:00,59.5,51.0,29.94,WSW,256,0.0,-999.0,73,-99.99,,,0.00,weatherlink.com 1.10,2013-07-15 21:46:00,
2013-07-15 15:16:00,59.1,50.0,29.93,WSW,245,0.0,-999.0,72,-99.99,,,0.00,weatherlink.com 1.10,2013-07-15 22:16:00,
2013-07-15 15:31:00,59.6,51.0,29.93,WSW,246,0.0,-999.0,72,-99.99,,,0.00,weatherlink.com 1.10,2013-07-15 22:31:00,
2013-07-15 16:01:00,60.1,51.0,29.93,WSW,257,0.0,-999.0,71,-99.99,,,0.00,weatherlink.com 1.10,2013-07-15 23:01:00,
2013-07-15 16:16:00,60.0,51.0,29.92,West,259,1.0,-999.0,73,-99.99,,,0.00,weatherlink.com 1.10,2013-07-15 23:16:00,
2013-07-15 16:31:00,58.7,50.0,29.92,WSW,256,0.0,-999.0,73,-99.99,,,0.00,weatherlink.com 1.10,2013-07-15 23:31:00,
2013-07-15 17:01:00,59.0,51.0,29.92,WSW,254,0.0,-999.0,74,-99.99,,,0.00,weatherlink.com 1.10,2013-07-16 00:01:00,
2013-07-15 17:16:00,57.0,49.0,29.91,WSW,254,0.0,-999.0,75,-99.99,,,0.00,weatherlink.com 1.10,2013-07-16 00:16:00,
2013-07-15 17:31:00,57.0,50.0,29.91,WSW,254,0.0,-999.0,76,-99.99,,,0.00,weatherlink.com 1.10,2013-07-16 00:31:00,
2013-07-15 17:46:00,55.8,48.0,29.91,WSW,254,0.0,-999.0,76,-99.99,,,0.00,weatherlink.com 1.10,2013-07-16 00:46:00,
2013-07-15 18:01:00,54.9,47.0,29.91,WSW,254,0.0,-999.0,76,-99.99,,,0.00,weatherlink.com 1.10,2013-07-16 01:01:00,
2013-07-15 18:16:00,54.5,47.0,29.91,WSW,254,0.0,-999.0,76,-99.99,,,0.00,weatherlink.com 1.10,2013-07-16 01:16:00,
2013-07-15 18:31:00,54.5,47.0,29.91,WSW,254,0.0,-999.0,77,-99.99,,,0.00,weatherlink.com 1.10,2013-07-16 01:31:00,
2013-07-15 18:46:00,54.3,47.0,29.91,WSW,254,0.0,-999.0,77,-99.99,,,0.00,weatherlink.com 1.10,2013-07-16 01:46:00,
2013-07-15 19:01:00,53.8,47.0,29.91,WSW,254,0.0,-999.0,77,-99.99,,,0.00,weatherlink.com 1.10,2013-07-16 02:01:00,
2013-07-15 19:16:00,54.0,47.0,29.91,WSW,254,0.0,-999.0,77,-99.99,,,0.00,weatherlink.com 1.10,2013-07-16 02:16:00,
2013-07-15 19:31:00,54.3,47.0,29.91,WSW,254,0.0,-999.0,77,-99.99,,,0.00,weatherlink.com 1.10,2013-07-16 02:31:00,
2013-07-15 19:46:00,54.2,47.0,29.91,WSW,254,0.0,-999.0,77,-99.99,,,0.00,weatherlink.com 1.10,2013-07-16 02:46:00,
2013-07-15 20:01:00,54.0,47.0,29.92,WSW,254,0.0,-999.0,77,-99.99,,,0.00,weatherlink.com 1.10,2013-07-16 03:01:00,
2013-07-15 20:16:00,53.6,47.0,29.92,WSW,254,0.0,-999.0,77,-99.99,,,0.00,weatherlink.com 1.10,2013-07-16 03:16:00,
2013-07-15 20:31:00,53.1,46.0,29.92,WSW,254,0.0,-999.0,77,-99.99,,,0.00,weatherlink.com 1.10,2013-07-16 03:31:00,
2013-07-15 20:46:00,52.8,46.0,29.92,WSW,254,0.0,-999.0,77,-99.99,,,0.00,weatherlink.com 1.10,2013-07-16 03:46:00,
2013-07-15 21:02:00,52.4,45.0,29.92,WSW,253,0.0,-999.0,77,-99.99,,,0.00,weatherlink.com 1.10,2013-07-16 04:02:00,
2013-07-15 21:16:00,52.1,45.0,29.92,WSW,253,0.0,-999.0,77,-99.99,,,0.00,weatherlink.com 1.10,2013-07-16 04:16:00,
2013-07-15 21:31:00,51.9,45.0,29.93,WSW,254,0.0,-999.0,77,-99.99,,,0.00,weatherlink.com 1.10,2013-07-16 04:31:00,
2013-07-15 21:46:00,51.8,45.0,29.93,WSW,254,0.0,-999.0,78,-99.99,,,0.00,weatherlink.com 1.10,2013-07-16 04:46:00,
2013-07-15 22:01:00,51.4,44.0,29.94,WSW,254,0.0,-999.0,77,-99.99,,,0.00,weatherlink.com 1.10,2013-07-16 05:01:00,
2013-07-15 22:16:00,51.3,45.0,29.94,WSW,253,0.0,-999.0,78,-99.99,,,0.00,weatherlink.com 1.10,2013-07-16 05:16:00,
2013-07-15 22:31:00,51.0,44.0,29.94,WSW,253,0.0,-999.0,78,-99.99,,,0.00,weatherlink.com 1.10,2013-07-16 05:31:00,
2013-07-15 22:46:00,51.0,44.0,29.93,WSW,254,0.0,-999.0,78,-99.99,,,0.00,weatherlink.com 1.10,2013-07-16 05:46:00,
2013-07-15 23:01:00,51.1,44.0,29.94,WSW,254,0.0,-999.0,78,-99.99,,,0.00,weatherlink.com 1.10,2013-07-16 06:01:00,
2013-07-15 23:16:00,50.8,44.0,29.93,WSW,254,0.0,-999.0,78,-99.99,,,0.00,weatherlink.com 1.10,2013-07-16 06:16:00,
2013-07-15 23:31:00,50.6,44.0,29.94,WSW,253,0.0,-999.0,78,-99.99,,,0.00,weatherlink.com 1.10,2013-07-16 06:31:00,
2013-07-15 23:46:00,50.5,44.0,29.94,WSW,254,0.0,-999.0,78,-99.99,,,0.00,weatherlink.com 1.10,2013-07-16 06:46:00,